{"data":{"norad_id":61527,"intl_designator":"2024-183U","name":"STARLINK-32313","alt_names":[],"object_type":"PAYLOAD","status":"ACTIVE","operator":null,"country":"US","launch_date":"2024-10-15","launch_site_code":"AFETR","launch_vehicle":null,"mission":null,"orbit_class":"UNKNOWN","rcs_meters":null,"size_class":null,"mass_kg":null,"dimensions":null,"purposes":["comms"],"wikipedia_slug":null,"has_3d_model":false,"image_url":null,"decayed_at":null,"tle_current":{"epoch":"2026-09-21T09:15:22.059072Z","epoch_age_seconds":115638,"freshness":"FRESH","line1":"1 61527U 24183U   26264.38567198  .00000745  00000+0  33192-4 0  9993","line2":"2 61527  53.1610 311.3720 0001085  88.4915 271.6212 15.34383141109649","mean_motion":15.34383141,"eccentricity":0.0001085,"inclination_deg":53.161,"raan_deg":311.372,"arg_perigee_deg":88.4915,"mean_anomaly_deg":271.6212,"bstar":3.3192e-5,"rev_number":10964,"period_min":93.848789231451,"perigee_km":462.0111125639,"apogee_km":463.49558576967,"semimajor_km":6840.8903491668,"source":"CELESTRAK","updated_at":"2026-09-22T09:00:49.359112Z"}}}